| time (UTC) | temp F | wind direction | speed MPH | gust MPH | rain 1hr in | rain 24hr in | rain mn in | humidity % | barometer mb |
| 20260507172018 | 62 | 338 | 3.0 | 7.0 | 0.00 | 0.11 | 0.03 | 37 | 1007.5 |
| 20260507171019 | 62 | 293 | 5.0 | 13.0 | 0.00 | 0.11 | 0.03 | 42 | 1007.5 |
| 20260507170020 | 61 | 270 | 3.0 | 7.0 | 0.00 | 0.11 | 0.03 | 42 | 1007.8 |
| 20260507165019 | 62 | 0 | 2.0 | 6.0 | 0.00 | 0.11 | 0.03 | 43 | 1008.0 |
| 20260507164019 | 61 | 270 | 5.0 | 12.0 | 0.00 | 0.11 | 0.03 | 42 | 1008.1 |
| 20260507163039 | 61 | 248 | 3.0 | 5.0 | 0.00 | 0.11 | 0.03 | 41 | 1008.0 |
| 20260507162019 | 60 | 270 | 3.0 | 7.0 | 0.00 | 0.11 | 0.03 | 44 | 1008.3 |
| 20260507161019 | 61 | 270 | 3.0 | 8.0 | 0.00 | 0.11 | 0.03 | 47 | 1008.3 |
| 20260507160019 | 61 | 293 | 3.0 | 8.0 | 0.00 | 0.11 | 0.03 | 47 | 1008.2 |
| 20260507155039 | 60 | 293 | 3.0 | 8.0 | 0.00 | 0.11 | 0.03 | 47 | 1008.4 |
| 20260507154039 | 61 | 293 | 3.0 | 6.0 | 0.00 | 0.11 | 0.03 | 47 | 1008.4 |
| 20260507153020 | 60 | 270 | 3.0 | 9.0 | 0.00 | 0.11 | 0.03 | 50 | 1008.3 |
| 20260507152019 | 60 | 293 | 3.0 | 7.0 | 0.00 | 0.11 | 0.03 | 52 | 1008.4 |
| 20260507151018 | 60 | 315 | 3.0 | 8.0 | 0.00 | 0.11 | 0.03 | 52 | 1008.6 |
| 20260507150018 | 59 | 338 | 3.0 | 8.0 | 0.00 | 0.11 | 0.03 | 56 | 1008.7 |
| 20260507145018 | 59 | 270 | 3.0 | 8.0 | 0.00 | 0.11 | 0.03 | 57 | 1008.7 |
| 20260507144018 | 58 | 270 | 2.0 | 7.0 | 0.00 | 0.11 | 0.03 | 62 | 1008.7 |
| 20260507143018 | 57 | 203 | 3.0 | 9.0 | 0.00 | 0.11 | 0.03 | 64 | 1008.7 |
| 20260507142019 | 57 | 270 | 3.0 | 9.0 | 0.00 | 0.11 | 0.03 | 66 | 1008.9 |
| 20260507141018 | 57 | 248 | 3.0 | 12.0 | 0.00 | 0.11 | 0.03 | 66 | 1008.9 |
| 20260507140139 | 58 | 315 | 2.0 | 4.0 | 0.00 | 0.11 | 0.03 | 68 | 1008.8 |
| 20260507135018 | 57 | 203 | 2.0 | 6.0 | 0.00 | 0.11 | 0.03 | 67 | 1008.8 |
| 20260507134019 | 57 | 315 | 2.0 | 6.0 | 0.00 | 0.11 | 0.03 | 68 | 1008.7 |
| 20260507133020 | 57 | 293 | 2.0 | 6.0 | 0.00 | 0.11 | 0.03 | 70 | 1008.8 |
| 20260507132018 | 56 | 315 | 2.0 | 6.0 | 0.00 | 0.11 | 0.03 | 68 | 1008.9 |
| 20260507131018 | 56 | 338 | 1.0 | 4.0 | 0.00 | 0.11 | 0.03 | 71 | 1008.9 |
| 20260507130018 | 55 | 270 | 1.0 | 3.0 | 0.00 | 0.11 | 0.03 | 71 | 1008.9 |
| 20260507125018 | 54 | 270 | 2.0 | 6.0 | 0.00 | 0.11 | 0.03 | 73 | 1008.8 |
| 20260507124018 | 54 | 293 | 2.0 | 4.0 | 0.00 | 0.11 | 0.03 | 77 | 1008.9 |
| 20260507123018 | 53 | 315 | 2.0 | 4.0 | 0.00 | 0.11 | 0.03 | 81 | 1009.0 |
| 20260507122038 | 51 | 315 | 2.0 | 4.0 | 0.00 | 0.11 | 0.03 | 88 | 1009.0 |
| 20260507121018 | 50 | 270 | 2.0 | 6.0 | 0.00 | 0.11 | 0.03 | 89 | 1008.9 |
| 20260507120019 | 49 | 248 | 1.0 | 3.0 | 0.00 | 0.11 | 0.03 | 91 | 1008.9 |
| 20260507115018 | 49 | 293 | 1.0 | 4.0 | 0.00 | 0.11 | 0.03 | 91 | 1008.7 |
| 20260507114018 | 49 | 0.0 | 1.0 | 0.00 | 0.11 | 0.03 | 91 | 1008.8 | |
| 20260507113018 | 49 | 0.0 | 1.0 | 0.00 | 0.11 | 0.03 | 91 | 1008.7 | |
| 20260507112018 | 49 | 0.0 | 3.0 | 0.00 | 0.11 | 0.03 | 91 | 1008.8 | |
| 20260507111059 | 48 | 0.0 | 1.0 | 0.00 | 0.11 | 0.03 | 91 | 1008.7 | |
| 20260507110018 | 48 | 0.0 | 1.0 | 0.00 | 0.11 | 0.03 | 91 | 1008.6 | |
| 20260507105018 | 48 | 0.0 | 2.0 | 0.00 | 0.11 | 0.03 | 90 | 1008.4 | |
| 20260507104038 | 48 | 225 | 1.0 | 5.0 | 0.00 | 0.11 | 0.03 | 90 | 1008.5 |
| 20260507103018 | 48 | 0.0 | 2.0 | 0.01 | 0.11 | 0.03 | 90 | 1008.6 | |
| 20260507102018 | 48 | 293 | 1.0 | 2.0 | 0.01 | 0.11 | 0.03 | 90 | 1008.3 |
| 20260507101018 | 48 | 315 | 1.0 | 3.0 | 0.01 | 0.11 | 0.03 | 89 | 1008.1 |
| 20260507100038 | 49 | 0.0 | 2.0 | 0.02 | 0.11 | 0.03 | 89 | 1008.0 | |
| 20260507095038 | 49 | 338 | 1.0 | 3.0 | 0.02 | 0.11 | 0.03 | 89 | 1008.1 |
| 20260507094038 | 49 | 248 | 1.0 | 4.0 | 0.02 | 0.11 | 0.03 | 88 | 1007.8 |
| 20260507093038 | 49 | 0.0 | 1.0 | 0.02 | 0.10 | 0.02 | 88 | 1007.9 | |
| 20260507092018 | 49 | 45 | 1.0 | 2.0 | 0.02 | 0.10 | 0.02 | 87 | 1008.3 |
| 20260507091018 | 49 | 0.0 | 1.0 | 0.02 | 0.10 | 0.02 | 86 | 1008.1 | |
| 20260507090017 | 49 | 0.0 | 2.0 | 0.01 | 0.09 | 0.01 | 86 | 1008.3 | |
| 20260507085018 | 50 | 0.0 | 2.0 | 0.01 | 0.09 | 0.01 | 85 | 1008.6 | |
| 20260507084018 | 50 | 293 | 1.0 | 6.0 | 0.01 | 0.09 | 0.01 | 85 | 1008.4 |
| 20260507083017 | 50 | 0.0 | 3.0 | 0.00 | 0.08 | 0.00 | 84 | 1008.3 | |
| 20260507082018 | 50 | 270 | 1.0 | 4.0 | 0.00 | 0.08 | 0.00 | 84 | 1008.4 |
| 20260507081018 | 50 | 293 | 1.0 | 2.0 | 0.00 | 0.08 | 0.00 | 84 | 1008.2 |
| 20260507080018 | 50 | 293 | 1.0 | 2.0 | 0.00 | 0.08 | 0.00 | 83 | 1007.8 |
| 20260507075018 | 51 | 0.0 | 2.0 | 0.00 | 0.08 | 0.00 | 82 | 1008.4 | |
| 20260507074018 | 51 | 270 | 1.0 | 3.0 | 0.00 | 0.08 | 0.00 | 82 | 1008.3 |
| 20260507073019 | 52 | 0.0 | 1.0 | 0.00 | 0.08 | 0.00 | 81 | 1007.9 | |
| 20260507072018 | 52 | 293 | 1.0 | 3.0 | 0.00 | 0.08 | 0.00 | 81 | 1008.3 |
| 20260507071018 | 52 | 315 | 2.0 | 5.0 | 0.00 | 0.08 | 0.00 | 81 | 1007.6 |
| 20260507070017 | 52 | 293 | 1.0 | 3.0 | 0.00 | 0.08 | 0.00 | 82 | 1007.6 |
| 20260507065018 | 52 | 315 | 1.0 | 3.0 | 0.00 | 0.08 | 0.00 | 82 | 1007.5 |
| 20260507064018 | 53 | 270 | 1.0 | 3.0 | 0.00 | 0.08 | 0.00 | 82 | 1007.5 |
| 20260507063017 | 53 | 270 | 1.0 | 4.0 | 0.00 | 0.08 | 0.00 | 82 | 1007.4 |
| 20260507062018 | 53 | 293 | 2.0 | 5.0 | 0.00 | 0.08 | 0.00 | 83 | 1007.7 |
| 20260507061017 | 54 | 293 | 2.0 | 7.0 | 0.00 | 0.08 | 0.00 | 85 | 1007.8 |
| 20260507060100 | 54 | 315 | 1.0 | 4.0 | 0.00 | 0.08 | 0.00 | 87 | 1007.5 |
| 20260507055058 | 55 | 270 | 2.0 | 3.0 | 0.00 | 0.08 | 0.00 | 86 | 1007.7 |
| 20260507054019 | 55 | 248 | 1.0 | 4.0 | 0.00 | 0.08 | 0.00 | 87 | 1007.8 |
| 20260507053020 | 55 | 293 | 2.0 | 6.0 | 0.00 | 0.08 | 0.00 | 87 | 1007.9 |
| 20260507052039 | 55 | 248 | 2.0 | 8.0 | 0.00 | 0.08 | 0.00 | 87 | 1008.0 |
| 20260507051018 | 55 | 270 | 2.0 | 5.0 | 0.00 | 0.08 | 0.00 | 87 | 1007.8 |
| 20260507050039 | 55 | 293 | 1.0 | 3.0 | 0.00 | 0.08 | 0.00 | 88 | 1007.7 |
| 20260507045019 | 56 | 315 | 2.0 | 7.0 | 0.00 | 0.08 | 0.00 | 90 | 1007.8 |
| 20260507044019 | 56 | 293 | 2.0 | 6.0 | 0.00 | 0.08 | 0.00 | 90 | 1007.9 |
| 20260507043019 | 57 | 293 | 3.0 | 8.0 | 0.00 | 0.08 | 0.00 | 92 | 1007.8 |
| 20260507042019 | 57 | 293 | 2.0 | 4.0 | 0.00 | 0.08 | 0.00 | 92 | 1007.6 |
| 20260507041019 | 58 | 270 | 1.0 | 3.0 | 0.00 | 0.08 | 0.00 | 93 | 1007.7 |
| 20260507040040 | 58 | 270 | 1.0 | 3.0 | 0.00 | 0.08 | 0.08 | 93 | 1007.8 |
| 20260507035017 | 58 | 315 | 2.0 | 10.0 | 0.00 | 0.08 | 0.08 | 94 | 1008.0 |
| 20260507034018 | 58 | 270 | 2.0 | 7.0 | 0.00 | 0.08 | 0.08 | 94 | 1007.8 |
| 20260507033018 | 59 | 293 | 1.0 | 4.0 | 0.00 | 0.08 | 0.08 | 94 | 1007.5 |
| 20260507032018 | 59 | 270 | 1.0 | 4.0 | 0.00 | 0.08 | 0.08 | 94 | 1007.3 |
| 20260507031058 | 59 | 293 | 1.0 | 3.0 | 0.00 | 0.08 | 0.08 | 94 | 1007.4 |
| 20260507030018 | 59 | 270 | 2.0 | 7.0 | 0.00 | 0.08 | 0.08 | 95 | 1007.0 |
| 20260507025018 | 59 | 315 | 2.0 | 7.0 | 0.00 | 0.08 | 0.08 | 94 | 1007.0 |
| 20260507024017 | 59 | 315 | 2.0 | 4.0 | 0.00 | 0.08 | 0.08 | 94 | 1006.8 |
| 20260507023018 | 59 | 315 | 2.0 | 5.0 | 0.01 | 0.08 | 0.08 | 94 | 1006.8 |
| 20260507022017 | 59 | 270 | 2.0 | 7.0 | 0.01 | 0.08 | 0.08 | 94 | 1006.9 |
| 20260507021017 | 59 | 293 | 3.0 | 7.0 | 0.01 | 0.08 | 0.08 | 94 | 1006.8 |
| 20260507020020 | 59 | 293 | 2.0 | 6.0 | 0.01 | 0.08 | 0.08 | 94 | 1006.7 |
| 20260507015020 | 59 | 315 | 2.0 | 5.0 | 0.01 | 0.08 | 0.08 | 94 | 1006.8 |
| 20260507014019 | 59 | 338 | 2.0 | 5.0 | 0.01 | 0.08 | 0.08 | 94 | 1006.7 |
| 20260507013017 | 59 | 338 | 2.0 | 7.0 | 0.00 | 0.07 | 0.07 | 94 | 1006.5 |
| 20260507012019 | 59 | 315 | 2.0 | 5.0 | 0.00 | 0.07 | 0.07 | 94 | 1006.6 |
| 20260507011019 | 59 | 338 | 2.0 | 6.0 | 0.00 | 0.07 | 0.07 | 94 | 1007.0 |
| 20260507010020 | 59 | 315 | 2.0 | 5.0 | 0.00 | 0.07 | 0.07 | 94 | 1007.0 |
| 20260507005019 | 59 | 270 | 3.0 | 9.0 | 0.00 | 0.07 | 0.07 | 94 | 1007.1 |
| 20260507004059 | 59 | 293 | 2.0 | 6.0 | 0.00 | 0.07 | 0.07 | 94 | 1006.9 |
| 20260507003039 | 59 | 315 | 2.0 | 4.0 | 0.00 | 0.07 | 0.07 | 94 | 1007.0 |
| 20260507002019 | 59 | 315 | 2.0 | 6.0 | 0.00 | 0.07 | 0.07 | 94 | 1006.9 |
| 20260507001119 | 59 | 315 | 2.0 | 6.0 | 0.00 | 0.07 | 0.07 | 94 | 1006.8 |
| 20260507000140 | 59 | 315 | 2.0 | 5.0 | 0.00 | 0.07 | 0.07 | 93 | 1006.6 |
| 20260506235019 | 59 | 293 | 2.0 | 6.0 | 0.02 | 0.07 | 0.07 | 93 | 1006.4 |
| 20260506234019 | 59 | 23 | 2.0 | 4.0 | 0.02 | 0.07 | 0.07 | 93 | 1006.5 |
| 20260506233039 | 59 | 315 | 2.0 | 4.0 | 0.02 | 0.07 | 0.07 | 93 | 1006.5 |
| 20260506232019 | 59 | 23 | 2.0 | 5.0 | 0.03 | 0.07 | 0.07 | 93 | 1006.3 |
| 20260506231019 | 59 | 338 | 2.0 | 4.0 | 0.03 | 0.07 | 0.07 | 93 | 1006.3 |
| 20260506230039 | 59 | 338 | 2.0 | 4.0 | 0.03 | 0.07 | 0.07 | 92 | 1006.5 |
| 20260506225019 | 60 | 180 | 2.0 | 6.0 | 0.01 | 0.05 | 0.05 | 92 | 1006.4 |
| 20260506224019 | 60 | 0 | 2.0 | 4.0 | 0.01 | 0.05 | 0.05 | 92 | 1006.5 |
| 20260506223019 | 60 | 0 | 2.0 | 6.0 | 0.01 | 0.05 | 0.05 | 92 | 1006.6 |
| 20260506222019 | 60 | 0 | 2.0 | 6.0 | 0.00 | 0.04 | 0.04 | 92 | 1006.6 |
| 20260506221020 | 60 | 158 | 2.0 | 5.0 | 0.00 | 0.04 | 0.04 | 91 | 1006.8 |
| 20260506220039 | 60 | 135 | 2.0 | 7.0 | 0.00 | 0.04 | 0.04 | 91 | 1006.8 |
| 20260506215019 | 60 | 338 | 1.0 | 4.0 | 0.00 | 0.04 | 0.04 | 91 | 1006.9 |
| 20260506214019 | 61 | 315 | 2.0 | 6.0 | 0.00 | 0.04 | 0.04 | 91 | 1006.9 |
| 20260506213040 | 61 | 23 | 2.0 | 4.0 | 0.00 | 0.04 | 0.04 | 90 | 1007.2 |
| 20260506212019 | 61 | 0 | 2.0 | 4.0 | 0.00 | 0.04 | 0.04 | 90 | 1007.2 |
| 20260506211019 | 60 | 315 | 2.0 | 6.0 | 0.00 | 0.04 | 0.04 | 90 | 1007.2 |
| 20260506210039 | 60 | 315 | 2.0 | 6.0 | 0.00 | 0.04 | 0.04 | 90 | 1007.3 |
| 20260506205019 | 61 | 315 | 3.0 | 6.0 | 0.00 | 0.04 | 0.04 | 90 | 1007.4 |
| 20260506204039 | 61 | 293 | 3.0 | 13.0 | 0.00 | 0.04 | 0.04 | 89 | 1007.5 |
| 20260506203039 | 61 | 293 | 3.0 | 8.0 | 0.00 | 0.04 | 0.04 | 89 | 1007.5 |
| 20260506202019 | 61 | 315 | 2.0 | 8.0 | 0.01 | 0.04 | 0.04 | 88 | 1007.6 |
| 20260506201019 | 61 | 315 | 3.0 | 8.0 | 0.02 | 0.04 | 0.04 | 88 | 1007.6 |
| 20260506200019 | 61 | 90 | 3.0 | 11.0 | 0.03 | 0.04 | 0.04 | 87 | 1007.5 |
| 20260506195019 | 62 | 315 | 2.0 | 7.0 | 0.04 | 0.04 | 0.04 | 86 | 1007.6 |
| 20260506194019 | 62 | 315 | 3.0 | 6.0 | 0.04 | 0.04 | 0.04 | 86 | 1007.5 |
| 20260506193018 | 63 | 315 | 3.0 | 8.0 | 0.04 | 0.04 | 0.04 | 84 | 1007.6 |
| 20260506192019 | 64 | 338 | 2.0 | 7.0 | 0.03 | 0.03 | 0.03 | 82 | 1007.8 |
| 20260506191019 | 65 | 315 | 3.0 | 7.0 | 0.02 | 0.02 | 0.02 | 80 | 1007.7 |
| 20260506190019 | 66 | 315 | 2.0 | 4.0 | 0.01 | 0.01 | 0.01 | 78 | 1007.6 |
| 20260506185039 | 66 | 293 | 3.0 | 9.0 | 0.00 | 0.00 | 0.00 | 77 | 1007.8 |
| 20260506184019 | 67 | 293 | 3.0 | 7.0 | 0.00 | 0.00 | 0.00 | 75 | 1007.9 |
| 20260506183018 | 68 | 293 | 3.0 | 7.0 | 0.00 | 0.00 | 0.00 | 73 | 1008.1 |
| 20260506182018 | 69 | 293 | 3.0 | 7.0 | 0.00 | 0.00 | 0.00 | 71 | 1008.2 |
| 20260506181019 | 69 | 293 | 4.0 | 13.0 | 0.00 | 0.00 | 0.00 | 68 | 1008.1 |
| 20260506180019 | 71 | 293 | 6.0 | 13.0 | 0.00 | 0.00 | 0.00 | 65 | 1008.2 |
| 20260506175018 | 72 | 293 | 3.0 | 9.0 | 0.00 | 0.00 | 0.00 | 62 | 1008.2 |
| 20260506174038 | 72 | 315 | 5.0 | 10.0 | 0.00 | 0.00 | 0.00 | 59 | 1008.1 |
| 20260506173018 | 73 | 315 | 5.0 | 13.0 | 0.00 | 0.00 | 0.00 | 58 | 1008.2 |